{"data":{"norad_id":61549,"intl_designator":"2024-184T","name":"STARLINK-32389","alt_names":[],"object_type":"PAYLOAD","status":"ACTIVE","operator":null,"country":"US","launch_date":"2024-10-15","launch_site_code":"AFWTR","launch_vehicle":null,"mission":null,"orbit_class":"UNKNOWN","rcs_meters":null,"size_class":null,"mass_kg":null,"dimensions":null,"purposes":["comms"],"wikipedia_slug":null,"has_3d_model":false,"image_url":null,"decayed_at":null,"tle_current":{"epoch":"2026-05-24T22:58:21.712800Z","epoch_age_seconds":82770,"freshness":"FRESH","line1":"1 61549U 24184T   26144.95719575  .00000049  00000+0  13771-4 0  9994","line2":"2 61549  53.1617  19.7057 0001103  94.7094 265.4033 15.30191568 90187","mean_motion":15.30191568,"eccentricity":0.0001103,"inclination_deg":53.1617,"raan_deg":19.7057,"arg_perigee_deg":94.7094,"mean_anomaly_deg":265.4033,"bstar":1.3771e-5,"rev_number":9018,"period_min":94.105864266532,"perigee_km":474.48431845683,"apogee_km":475.99617347729,"semimajor_km":6853.3772459671,"source":"CELESTRAK","updated_at":"2026-05-25T13:38:19.400678Z"}}}